Guthrie, OK

12:26 AM CDT on June 26, 2017 (GMT -0500)
Guthrie Municipal

Weather History for KGOK - November, 2012

Change the Weather History Date:

Thursday, November 15, 2012

  Actual Average Record
Temperature  
Mean Temperature 52 °F -  
Max Temperature 64 °F 61 °F 81 °F (1952)
Min Temperature 41 °F 38 °F 16 °F (1959)
Degree Days  
Heating Degree Days 12    
Growing Degree Days 2 (Base 50)    
Moisture  
Dew Point 31 °F    
Average Humidity 47    
Maximum Humidity 65    
Minimum Humidity 31    
Precipitation  
Precipitation 0.00 in - - ()
Sea Level Pressure  
Sea Level Pressure 30.28 in    
Wind  
Wind Speed 8 mph (SSE)    
Max Wind Speed 13 mph    
Max Gust Speed -    
Visibility 10 miles    
Events      
Averages and records for this station are not official NWS values.
T = Trace of Precipitation, MM = Missing Value Source: NWS Daily Summary

Daily Weather History Graph

Daily Weather History Graph

Search for Another Location

Airport or City:

Trip Planner

Search our weather history database for the weather conditions in past years. The results will help you decide how hot, cold, wet, or windy it might be!

Date:

Astronomy

Nov. 15, 2012 Rise Set
Actual Time 7:06 AM CST 5:22 PM CST
Civil Twilight 6:39 AM CST 5:49 PM CST
Nautical Twilight 6:08 AM CST 6:20 PM CST
Astronomical Twilight 5:37 AM CST 6:50 PM CST
Moon 9:01 AM CST (11/15) 7:17 PM CST (11/15)
Length of Visible Light 11h 10m
Length of Day
10h 15m
Waxing Crescent, 5% of the Moon is Illuminated
Nov 15
Waxing Crescent
Nov 20
First Quarter
Nov 28
Full
Dec 6
Last Quarter
Dec 13
New

Hourly Weather History & Observations

Time (CST) Temp. Windchill Dew Point Humidity Pressure Visibility Wind Dir Wind Speed Gust Speed Precip Events Conditions
12:53 AM 46.0 °F 41.9 °F 28.9 °F 51% 30.25 in 10.0 mi South 8.1 mph - N/A   Clear
1:53 AM 45.0 °F 40.1 °F 28.9 °F 53% 30.25 in 10.0 mi SSE 9.2 mph - N/A   Clear
2:53 AM 44.1 °F 39.5 °F 28.9 °F 55% 30.24 in 10.0 mi South 8.1 mph - N/A   Clear
3:53 AM 43.0 °F 37.7 °F 28.9 °F 58% 30.24 in 10.0 mi South 9.2 mph - N/A   Clear
4:53 AM 42.1 °F 37.1 °F 28.9 °F 60% 30.24 in 10.0 mi South 8.1 mph - N/A   Clear
5:53 AM 42.1 °F 36.6 °F 28.9 °F 60% 30.25 in 10.0 mi South 9.2 mph - N/A   Clear
6:53 AM 41.0 °F 39.0 °F 28.9 °F 62% 30.27 in 10.0 mi SSE 3.5 mph - N/A   Clear
7:53 AM 42.1 °F 39.2 °F 28.9 °F 60% 30.29 in 10.0 mi SSE 4.6 mph - N/A   Clear
8:53 AM 48.0 °F - 28.9 °F 48% 30.29 in 10.0 mi South 10.4 mph - N/A   Clear
9:53 AM 53.1 °F - 28.9 °F 40% 30.29 in 10.0 mi South 10.4 mph - N/A   Clear
10:53 AM 57.9 °F - 30.0 °F 35% 30.29 in 10.0 mi South 12.7 mph - N/A   Clear
11:53 AM 60.1 °F - 32.0 °F 35% 30.27 in 10.0 mi South 10.4 mph - N/A   Clear
12:53 PM 62.1 °F - 33.1 °F 34% 30.25 in 10.0 mi South 10.4 mph - N/A   Clear
1:53 PM 64.0 °F - 33.1 °F 31% 30.23 in 10.0 mi South 8.1 mph - N/A   Clear
2:53 PM 64.9 °F - 34.0 °F 32% 30.22 in 10.0 mi South 11.5 mph - N/A   Clear
3:53 PM 64.9 °F - 35.1 °F 33% 30.23 in 10.0 mi South 8.1 mph - N/A   Clear
4:53 PM 62.1 °F - 33.1 °F 34% 30.25 in 10.0 mi SE 6.9 mph - N/A   Clear
5:53 PM 57.0 °F - 33.1 °F 40% 30.28 in 10.0 mi ESE 5.8 mph - N/A   Clear
6:53 PM 54.0 °F - 33.1 °F 45% 30.30 in 10.0 mi ESE 5.8 mph - N/A   Clear
7:53 PM 53.1 °F - 32.0 °F 45% 30.32 in 10.0 mi SE 5.8 mph - N/A   Clear
8:53 PM 50.0 °F - 32.0 °F 50% 30.34 in 10.0 mi ESE 5.8 mph - N/A   Clear
9:53 PM 50.0 °F - 32.0 °F 50% 30.35 in 10.0 mi ESE 6.9 mph - N/A   Clear
10:53 PM 46.9 °F - 32.0 °F 56% 30.35 in 10.0 mi ESE 3.5 mph - N/A   Clear
11:53 PM 43.0 °F 41.3 °F 32.0 °F 65% 30.37 in 10.0 mi East 3.5 mph - N/A   Clear